Regional Weather Roundup
Issued by NWS

Home | Current Version | Previous Version | Graphics & Text | Print | Product List | Glossary On
Versions: 1 2 3 4 5 6 7 8 9 10 11 12 13 14 15 16 17 18 19 20 21 22 23 24 25 26 27 28 29 30 31 32 33 34 35 36 37 38 39 40 41 42 43 44 45 46 47 48 49 50
000
ASUS43 KOAX 262102
RWRNE

WEATHER ROUNDUP FOR NEBRASKA
NATIONAL WEATHER SERVICE OMAHA NE
300 PM CST FRI DEC 26 2014

NOTES: SATELLITE DATA IS BEING USED TO AUGMENT CLOUD COVER ABOVE
       12000 FEET.
       "FAIR" INDICATES FEW OR NO CLOUDS BELOW 12,000 FEET WITH NO
       SIGNIFICANT WEATHER AND/OR OBSTRUCTIONS TO VISIBILITY.

  * THESE STATIONS DO NOT REPORT WEATHER SUCH AS RAIN...SNOW OR FOG.

NEZ001>004-019>022-054>056-262200-
NEBRASKA PANHANDLE

CITY           SKY/WX    TMP DP  RH WIND       PRES   REMARKS
SCOTTSBLUFF    LGT SNOW  21  17  84 N5        30.02S FOG     WCI  15
ALLIANCE       LGT SNOW  18  14  84 N13       30.01R FOG     WCI   5
CHADRON        CLOUDY    21  14  74 NE8       30.07R WCI  11
SIDNEY         LGT SNOW  18  13  80 N15       29.97F WCI   4
$$

NEZ057>060-069>072-079>082-262200-
SOUTHWEST NEBRASKA

CITY           SKY/WX    TMP DP  RH WIND       PRES   REMARKS
NORTH PLATTE   SNOW      23  19  85 N13       30.00S VSB 1/2 WCI  11
IMPERIAL       SNOW      22  18  85 N15       29.99R VSB 1/2 WCI   9
LEXINGTON      CLOUDY    28  19  70 N18G26    29.98R WCI  15
MCCOOK         LGT SNOW  25  21  85 N15       29.98F FOG     WCI  13
OGALLALA       LGT SNOW  22  19  88 N13       30.00F VSB 1   WCI  10
$$

NEZ005>010-023>029-035>040-094-262200-
NORTH CENTRAL NEBRASKA

CITY           SKY/WX    TMP DP  RH WIND       PRES   REMARKS
VALENTINE      CLOUDY    21  17  84 N12       30.07R WCI   9
AINSWORTH      LGT SNOW  20  18  91 N13       30.05R WCI   8
BROKEN BOW     CLOUDY    25  19  78 N15       29.99S WCI  13
O`NEILL        LGT SNOW  23  22  94 N16       30.04S WCI  10
ORD            CLOUDY    25  17  72 N18       30.02R WCI  11
THEDFORD       LGT SNOW  23  20  89 N12G17    30.03S WCI  12
$$

NEZ041-046>049-061>064-073>077-083>087-262200-
SOUTH CENTRAL NEBRASKA

CITY           SKY/WX    TMP DP  RH WIND       PRES   REMARKS
GRAND ISLAND   CLOUDY    27  21  78 N16       30.00S WCI  15
AURORA         CLOUDY    28  25  86 N18       29.99S WCI  16
HASTINGS       CLOUDY    28  21  75 N17       29.97F WCI  16
HEBRON         CLOUDY    31  26  84 N13       29.97F WCI  21
HOLDREGE       CLOUDY    27  21  77 N13       29.98R WCI  16
KEARNEY *      CLOUDY    27  18  69 N20       29.98F WCI  13
YORK           CLOUDY    28  27  93 N16G22    29.99S WCI  17
$$

NEZ011>018-030>034-042>045-262200-
NORTHEAST NEBRASKA

CITY           SKY/WX    TMP DP  RH WIND       PRES   REMARKS
NORFOLK        CLOUDY    28  24  85 N16       30.00R WCI  16
ALBION         CLOUDY    26  21  81 N16G22    30.02R WCI  14
BLAIR          CLOUDY    33  29  88 N10       29.97R WCI  24
COLUMBUS *     CLOUDY    28  21  74 N12       30.02S WCI  18
FREMONT        CLOUDY    32  29  88 N7        30.00R FOG     WCI  26
TEKAMAH        CLOUDY    33  29  85 N15       30.01R WCI  23
WAYNE          CLOUDY    30  26  84 N15       30.02R WCI  19
$$

NEZ050>053-065>068-078-088>093-262200-
SOUTHEAST NEBRASKA

CITY           SKY/WX    TMP DP  RH WIND       PRES   REMARKS
LINCOLN        CLOUDY    32  28  85 N10       30.01R WCI  24
OMAHA EPPLEY   CLOUDY    33  30  88 N13       30.00R WCI  24
BEATRICE       CLOUDY    32  30  92 N12       29.96F FOG     WCI  23
FALLS CITY     CLOUDY    36  31  82 N6        29.95S WCI  31
NEBRASKA CITY  CLOUDY    33  33  98 N10       29.96R FOG     WCI  25
PLATTSMOUTH    CLOUDY    33  30  90 N8G16     29.97F FOG     WCI  25
$$

NEZ044-045-051>053-067-262200-
OMAHA AREA

CITY           SKY/WX    TMP DP  RH WIND       PRES   REMARKS
OMAHA EPPLEY   CLOUDY    33  30  88 N13       30.00R WCI  24
BLAIR          CLOUDY    33  29  88 N10       29.97R WCI  24
FREMONT        CLOUDY    32  29  88 N7        30.00R FOG     WCI  26
MILLARD        CLOUDY    33  29  85 N7        29.98S WCI  27
OFFUTT AFB     CLOUDY    34  30  86 N10       29.97R WCI  26
PLATTSMOUTH    CLOUDY    33  30  90 N8G16     29.97F FOG     WCI  25
WAHOO          CLOUDY    32  28  83 N16       29.98S HAZE    WCI  21
$$


USA.gov is the U.S. government's official web portal to all federal, state and local government web resources and services.